www.pogodaiklimat.ru

Погода и климат >> Архив погоды >> Малайзия >> Kota Kinabalu


ПОГОДА в Kota Kinabalu

  • Прогноз погоды в Kota Kinabalu
  • Монитор погоды в Kota Kinabalu
  • Климат города

АРХИВ ПОГОДЫ в Kota Kinabalu

Время (UTC), дата Ветер
(напр.,м/с)
 
Видим.   Явления Облачность Т
(С)
Тd
(С)
f
(%)
Тe
(С)
Тes
(С)
Комфортность P
(гПа)
Po
(гПа)
Тmin
(С)
Tmax
(С)
R
(мм)
R24
(мм)
S
(см)
00 11.11 ЮВ 2 28 км 9/3 450 м
[Cu Sc Ac lent Ci fib]
+26.7 +23.8 84 +37 +38 очень
душно
1009.9 1009.6 +24.5
03 11.11 З 1 30 км 9/3 450 м
[Cu Sc Ac lent Ci fib]
+31.3 +26.5 76 +48 +56 опасность
перегрева
1010.0 1009.7
06 11.11 СЗ 2 28 км 9/4 450 м
[Cu Sc Ac lent Ci fib]
+32.7 +26.3 69 +49 +54 опасность
перегрева
1007.6 1007.3
09 11.11 СЗ 1 25 км 9/4 450 м
[Cu Sc Ac lent Ci fib]
+31.0 +26.1 75 +46 +47 опасность
перегрева
1007.1 1006.8
12 11.11 ЮЗ 1 18 км 9/3 420 м
[Cu Sc Ac lent Cs]
+28.2 +25.3 84 +41 +41 опасность
перегрева
1009.1 1008.8 +33.4
15 11.11 ЮВ 2 15 км в посл. час дождь 9/4 420 м
[Cu Sc Ac lent Cs]
+26.2 +25.6 97 +39 +39 очень
душно
1009.6 1009.3
18 11.11 В 2 18 км 9/1 420 м
[Cu Sc Ac lent Cs]
+25.1 +24.3 95 +35 +35 очень
душно
1007.7 1007.4 3
21 11.11 ЮВ 2 18 км 9/1 450 м
[Cu Sc Ac lent Ci sp]
+25.0 +23.8 93 +34 +34 очень
душно
1007.4 1007.1
00 12.11 ЮВ 2 28 км 9/4 450 м
[Cu Sc Ac lent Cs]
+27.0 +24.7 87 +38 +39 очень
душно
1009.3 1009.0 +24.7 3
03 12.11 СЗ 3 6000 м слабый дождь 9/6 300 м
[Cb cap Ac lent Cs]
+26.8 +25.1 90 +39 +42 очень
душно
1010.0 1009.7
06 12.11 С 2 4000 м дождь {гроза} 10/6 420 м
[Cb cap Ac lent Cs]
+26.0 +24.8 93 +37 +40 очень
душно
1008.1 1007.8 7
09 12.11 ЮВ 2 9000 м слабый дождь 10/6 420 м
[Cb cap Ac lent Cs]
+26.1 +24.5 91 +37 +37 очень
душно
1007.7 1007.4
12 12.11 В 4 15 км в посл. час дождь 9/4 400 м
[Cu Sc Ac lent Cs]
+25.1 +23.2 89 +34 +34 очень
душно
1008.5 1008.2 +30.5 0.4
15 12.11 В 3 18 км 9/1 420 м
[Cu Sc Ac lent Cs]
+24.1 +22.3 90 +31 +31 очень
душно
1009.5 1009.2
18 12.11 В 3 18 км 9/1 420 м
[Cu Sc Ac lent Cs]
+23.8 +22.0 90 +31 +31 очень
душно
1007.7 1007.4
21 12.11 В 3 18 км 9/1 420 м
[Cu Sc Ac lent Cs]
+23.8 +22.3 91 +31 +31 очень
душно
1007.0 1006.7
00 13.11 Ю 3 28 км 9/1 420 м
[Cu Sc Ac lent Ci sp]
+27.3 +22.9 77 +36 +38 очень
душно
1009.0 1008.7 +23.5 7
03 13.11 ЮЗ 5 23 км 9/3 420 м
[Cu Sc Ac lent Ci sp]
+29.0 +25.6 82 +43 +46 опасность
перегрева
1009.1 1008.8
06 13.11 ЮЗ 5 8000 м слабый дождь 10/5 400 м
[Cb cap Ac lent Cs]
+26.7 +25.2 91 +38 +41 очень
душно
1007.1 1006.8 0.4
09 13.11 В 2 25 км {дождь} 10/5 400 м
[Cu Sc Ac lent Cs]
+26.3 +23.8 86 +36 +36 очень
душно
1007.1 1006.8
12 13.11 З 1 3000 м дождь 10/5 400 м
[Cu Sc Ac lent Cs]
+24.3 +24.0 98 +33 +33 очень
душно
1009.3 1009.0 +31.6 30
15 13.11 В 2 6000 м слабый дождь 10/5 400 м
[Cu Sc Ac lent Cs]
+23.9 +23.6 98 +32 +32 очень
душно
1010.2 1009.9
18 13.11 Ю 3 8000 м слабый дождь 10/5 400 м
[Cu Sc Ac lent Cs]
+23.8 +23.5 98 +32 +32 очень
душно
1008.3 1008.0 21
21 13.11 Ю 2 16 км {дождь} 9/4 420 м
[Cu Sc Ac lent Cs]
+23.8 +23.4 98 +32 +32 очень
душно
1008.5 1008.2
00 14.11 Ю 3 26 км {дождь} 9/4 420 м
[Cu Sc Ac lent Cs]
+25.8 +24.2 91 +36 +37 очень
душно
1010.8 1010.5 +23.6 52
03 14.11 З 2 28 км 9/3 450 м
[Cu Sc Ac lent Ci sp]
+30.7 +25.6 74 +45 +52 опасность
перегрева
1010.1 1009.8
06 14.11 З 1 15 км осадки на расстоянии 9/6 420 м
[Cb cap Ac lent Cs]
+32.6 +26.5 70 +49 +53 опасность
перегрева
1007.6 1007.3
09 14.11 С 1 28 км 9/5 420 м
[Cu Sc Ac lent Cs]
+29.3 +24.9 77 +42 +43 опасность
перегрева
1008.0 1007.7
12 14.11 ЮВ 2 18 км 9/3 420 м
[Cu Sc Ac trans Cs]
+26.9 +24.7 88 +38 +38 очень
душно
1009.2 1008.9 +32.7
15 14.11 В 2 18 км 9/1 420 м
[Cu Sc Ac trans Cs]
+25.1 +23.1 89 +34 +34 очень
душно
1010.0 1009.7
18 14.11 В 3 18 км 9/1 420 м
[Cu Sc Ac lent Cs]
+24.3 +22.4 89 +32 +32 очень
душно
1009.0 1008.7
21 14.11 В 2 18 км 9/1 420 м
[Cu Sc Ac lent Cs]
+23.7 +22.1 91 +31 +31 очень
душно
1009.1 1008.8
00 15.11 ЮВ 3 28 км 8/1 450 м
[Cu Sc Ac trans Ci sp]
+27.6 +23.2 77 +37 +39 очень
душно
1010.1 1009.8 +25.5
03 15.11 СЗ 3 21 км туман 8/1 420 м
[Cu Sc Ac trans Ci sp]
+31.2 +26.2 75 +47 +54 опасность
перегрева
1010.6 1010.3
06 15.11 СЗ 4 25 км 9/3 420 м
[Cu Sc Ac lent Ci fib]
+31.3 +25.7 72 +46 +50 опасность
перегрева
1008.1 1007.8
09 15.11 С 2 16 км осадки на расстоянии 9/5 420 м
[Cb cap Ac lent Cs]
+29.1 +24.8 78 +42 +42 опасность
перегрева
1008.3 1008.0
12 15.11 СВ 1 9000 м гроза, ливневой дождь 9/5 420 м
[Cb cap Ac lent Cs]
+26.6 +24.7 89 +38 +38 очень
душно
1009.7 1009.4 +28.5
15 15.11 В 2 18 км {гроза, дождь} 9/3 420 м
[Cu Sc Ac lent Cs]
+25.6 +24.6 94 +36 +36 очень
душно
1009.5 1009.2
18 15.11 В 2 18 км 9/3 420 м
[Cu Sc Ac lent Cs]
+24.6 +23.5 94 +33 +33 очень
душно
1008.2 1007.9 0.0
21 15.11 ЮВ 2 18 км 9/3 420 м
[Cu Sc Ac lent Cs]
+24.2 +23.1 94 +32 +32 очень
душно
1008.2 1007.9
00 16.11 ЮВ 2 30 км 9/1 450 м
[Cu Sc Ac lent Ci sp]
+27.8 +24.3 81 +39 +41 очень
душно
1010.1 1009.8
03 16.11 З 1 28 км 9/4 450 м
[Cu Sc Ac lent Ci sp]
+31.9 +26.4 73 +48 +55 опасность
перегрева
1010.2 1009.9
06 16.11 СЗ 3 20 км осадки на расстоянии 9/3 420 м
[Cu Sc Ac lent Ci sp]
+32.0 +26.2 71 +48 +53 опасность
перегрева
1007.6 1007.3
09 16.11 ЮВ 3 10 км гроза, ливневой дождь 9/5 420 м
[Cb cap Ac lent Cs]
+26.3 +24.3 89 +37 +37 очень
душно
1007.7 1007.4
12 16.11 С 2 15 км слабый дождь {гроза} 10/4 400 м
[Cu Sc Ac lent Cs]
+25.6 +24.0 91 +35 +35 очень
душно
1009.3 1009.0 +33.1 1
15 16.11 ЮВ 2 18 км 9/3 420 м
[Cu Sc Ac lent Cs]
+24.9 +23.6 92 +34 +34 очень
душно
1009.1 1008.8
18 16.11 ЮВ 2 18 км 9/1 420 м
[Cu Sc Ac lent Cs]
+24.1 +22.9 93 +32 +32 очень
душно
1007.4 1007.1 0.0
21 16.11 В 3 18 км 9/1 420 м
[Cu Sc Ac lent Cs]
+23.7 +22.3 92 +31 +31 очень
душно
1006.8 1006.5
00 17.11 В 2 26 км 9/3 420 м
[Cu Sc Ac lent Cs]
+26.0 +22.9 83 +35 +36 очень
душно
1008.0 1007.7 +23.6 1
03 17.11 З 2 25 км 9/3 420 м
[Cu Sc Ac lent Cs]
+30.1 +26.2 80 +46 +53 опасность
перегрева
1008.0 1007.7
06 17.11 З 1 25 км 9/4 420 м
[Cb cap Ac lent Cs]
+32.4 +27.2 74 +51 +57 опасность
перегрева
1006.0 1005.7 0.2
09 17.11 СЗ 2 18 км осадки на расстоянии 10/5 400 м
[Cu Sc Ac lent Cs]
+29.1 +25.3 80 +42 +43 опасность
перегрева
1005.8 1005.5
12 17.11 ЮВ 2 12 км слабый дождь 10/5 400 м
[Cu Sc Ac lent Cs]
+26.1 +24.8 93 +37 +37 очень
душно
1007.5 1007.2 +32.6 0.2
15 17.11 В 2 18 км {дождь} 9/3 420 м
[Cu Sc Ac lent Cs]
+25.3 +24.4 95 +35 +35 очень
душно
1008.1 1007.8
18 17.11 ЮВ 3 18 км {дождь} 9/1 420 м
[Cu Sc Ac lent Cs]
+24.8 +23.5 92 +33 +33 очень
душно
1006.5 1006.2 0.0

 

Местоположение метеостанции Kota Kinabalu (Малайзия): широта 5.93 долгота 116.05 высота над уровнем моря 3 м.

В архиве по умолчанию представлена погода в Kota Kinabalu за последнюю неделю. Архивные данные за месяц целиком и за предыдущие месяцы, начиная с января 2011 года, Вы можете получить, выбрав интересующий диапазон дат из раскрывающегося списка и нажав кнопку "Ввод!".

Внимание! Время в таблицах - всемирное. Для получения местного времени необходимо прибавить поправку, которая в Kota Kinabalu равна 8 ч.

Смотрите также архив погоды в соседних городах и на ближайших метеорологических станциях:

Погода в Labuan (Малайзия) (113 км)
Погода в Brunei Airport (Бруней) (167 км)
Погода в Sandakan (Малайзия) (222 км)
Погода в Longbawan (Индонезия) (248 км)
Погода в Tawau (Малайзия) (274 км)
Погода в Miri (Малайзия) (290 км)
Погода в Tarakan (Индонезия) (334 км)
Погода в Tanjung Selor (Индонезия) (371 км)
Погода в Tanjung Redep (Индонезия) (451 км)
Погода в Bintulu (Малайзия) (452 км)

Пояснения к столбцам:

Ветер - указаны скорость ветра в м/с - средняя за 10 мин, порывы в срок и между сроками (в фигурных скобках) и направление, откуда дует ветер: С - северный, СВ - северо-восточный, В - восточный, ЮВ - юго-восточный, Ю - южный, ЮЗ - юго-западный, З - западный, СЗ - северо-западный.
Видимость - горизонтальная дальность видимости в метрах или километрах. При видимости от 1 до 10 км при отсутствии осадков обычно наблюдается дымка, при ухудшении видимости до 1 км и менее - туман. В сухую погоду видимость может ухудшаться дымом, пылью или мглою.
Явления - указаны атмосферные явления, наблюдавшиеся в срок или в последний час перед сроком; фигурными скобками обозначены явления, наблюдавшиеся между сроками (за 1-3 часа до срока); квадратными скобками обозначены град или гололедные отложения с указанием их диаметра в мм.
Облачность - указаны через наклонную черту общая и нижняя облачность в баллах и высота нижней границы облаков в метрах; квадратными скобками обозначены формы облаков: Ci - перистые, Cs - перисто-слоистые, Cc - перисто-кучевые, Ac - высококучевые, As - высокослоистые, Sc - слоисто-кучевые, Ns - слоисто-дождевые, Cu - кучевые, Cb - кучево-дождевые. Подробнее классификацию облаков см. в Атласе облаков (PDF).
T - Температура воздуха - температура, измеренная на высоте 2 м над землей.
Td - Температура точки росы - температура, при понижении до которой содержащийся в воздухе водяной пар достигнет насыщения.
f - Относительная влажность воздуха - влажноcть воздуха, измеренная на высоте 2 м над землей.
Te - Эффективная температура - температура, которую ощущает одетый по сезону человек в тени. Характеристика душности погоды. При расчете учитывается влияние влажности воздуха и скорости ветра на теплоощущения человека.
Tes - Эффективная температура на солнце - температура, которую ощущает человек, с поправкой на солнечный нагрев. Характеристика знойности погоды. Зависит от высоты солнца над горизонтом, облачности и скорости ветра. Ночью, в пасмурную погоду, а также при ветре 12 м/с и более поправка равна нулю.
P - Атмосферное давление - приведенное к уровню моря атмосферное давление.
Po - Атмосферное давление - измеренное на уровне метеостанции атмосферное давление.
Tmin - Минимальная температура - минимум температуры воздуха на высоте 2 м над землей.
Tmax - Максимальная температура - максимум температуры воздуха на высоте 2 м над землей.
R - Количество осадков - Количество выпавших осадков за период времени, мм. При наведении курсора мыши на число - период времени, за который выпало указанное количество осадков.
R24 - Количество осадков - Количество выпавших осадков за 24 часа, мм.
S - Снежный покров - Высота снежного покрова, см. При наведении курсора мыши на число - состояние снежного покрова и степень покрытия местности в баллах.